Theta_e
324 325 329 331 331 336 336 336 336 337 337 337 340 341 343 342 342 342 340 340 339 340 342 342 343 344 345 344 344 343 343 343 343 343 343 343 343 343
320 324 324 325 326 328 335 335 335 335 336 336 335 336 337 337 335 334 334 337 337 340 339 342 341 343 344 344 344 343 342 341 341 342 342 342 342 343
330 331 332 332 334 333 334 334 334 334 334 334 337 336 336 336 336 337 336 337 337 338 335 340 339 342 341 337 337 339 344 345 344 344 344 341 341 340
333 331 330 331 330 330 334 336 337 337 337 337 336 336 336 336 336 337 337 338 337 337 338 337 340 338 340 337 334 336 341 344 344 344 342 340 340 342
330 329 329 331 330 327 328 332 333 336 335 334 334 333 334 337 338 335 337 335 338 338 339 339 341 338 337 338 339 335 339 342 343 343 342 339 340 341
324 328 326 325 326 323 324 321 323 326 328 328 333 333 336 336 335 336 334 335 335 335 335 338 340 338 338 341 341 340 338 338 338 339 342 343 342 341
324 325 320 315 321 325 327 326 320 318 322 323 326 331 333 334 333 332 333 333 334 334 335 338 340 341 341 339 339 340 341 340 338 336 336 337 338 341
326 323 326 323 317 321 323 322 319 314 324 325 327 328 330 332 333 332 331 329 331 335 337 336 340 339 338 339 338 339 337 335 334 336 337 337 337 337
323 326 328 326 315 315 316 312 311 317 319 325 328 330 330 330 330 331 331 326 330 332 332 335 336 337 337 336 335 334 333 333 332 332 332 331 331 332
325 328 326 327 317 318 319 317 309 313 320 325 327 329 329 328 327 325 325 325 330 333 333 336 336 336 336 334 334 333 332 331 331 330 329 329 329 328
325 326 325 321 318 317 319 318 313 308 316 323 325 325 326 326 326 326 325 325 328 331 332 332 334 333 332 333 333 331 329 329 329 327 326 323 320 321
319 323 321 319 317 317 319 316 309 307 308 317 322 325 325 325 326 327 327 324 323 322 329 330 331 330 330 331 332 332 332 332 330 330 325 319 318 316
310 309 309 311 312 315 313 309 309 310 310 311 312 321 325 326 326 326 326 326 324 322 318 323 328 327 327 327 329 326 326 330 332 324 318 315 317 315
316 316 312 309 309 311 316 316 316 315 311 319 322 319 321 323 325 325 327 323 318 316 314 309 314 316 319 323 324 322 321 326 320 315 314 314 314 315
321 321 319 314 313 315 319 319 319 319 312 318 321 319 318 318 319 319 317 316 314 313 313 314 313 312 307 305 307 315 316 314 313 314 315 315 315 314
322 321 321 317 314 314 319 319 320 320 319 319 318 317 316 316 317 317 317 317 317 315 314 313 314 314 316 314 311 308 312 311 314 315 314 314 313 312
322 321 321 317 316 315 315 319 320 321 320 319 319 319 319 318 317 316 316 317 317 317 315 313 315 315 316 316 316 316 317 315 315 315 315 314 311 312
318 317 317 318 317 317 316 314 318 320 321 320 319 320 319 319 318 318 317 317 316 317 317 315 314 316 317 317 317 316 317 318 317 316 316 315 314 312
318 316 316 316 317 318 317 316 317 319 320 320 320 320 319 318 318 317 317 316 316 316 317 316 316 315 316 318 317 317 316 316 317 317 316 316 314 313
321 321 319 319 320 320 320 320 320 321 320 319 320 319 320 320 319 318 317 317 317 316 316 317 317 315 315 315 316 318 317 316 317 316 315 315 315 314
326 320 319 319 320 322 321 320 320 321 322 322 320 320 320 319 320 320 319 318 318 318 316 315 316 316 316 316 317 317 316 317 317 316 316 316 316 316
322 321 321 323 324 324 323 323 323 323 324 323 323 322 322 321 321 320 320 320 319 319 318 316 315 315 316 316 316 315 316 317 316 316 317 317 317 317
320 319 320 321 320 321 320 322 322 323 322 321 321 321 321 322 323 322 322 321 322 322 321 320 317 315 315 315 315 315 316 316 316 317 317 317 316 316
Wind_Speed
7 6 5 6 8 9 6 5 1 2 3 7 7 8 4 2 4 6 7 7 7 9 8 8 10 13 15 17 19 19 21 22 21 22 23 23 26 28
3 4 2 2 4 7 9 7 5 5 6 7 6 8 6 7 6 6 11 14 14 13 14 11 10 7 8 9 12 15 16 19 19 20 22 25 28 27
2 4 4 3 2 2 4 7 8 6 5 5 1 4 9 10 10 3 2 6 11 15 13 14 13 12 8 7 11 14 17 18 19 19 20 19 19 19
1 4 2 3 3 5 7 5 4 4 4 3 4 5 2 3 8 9 8 9 8 10 11 12 12 9 7 8 11 14 15 16 16 17 16 16 15 14
4 5 3 3 5 3 5 8 9 8 9 6 7 8 6 3 3 7 10 10 7 6 11 13 10 9 10 12 11 9 11 12 12 13 13 13 13 13
5 8 8 6 5 5 5 3 5 8 9 7 6 7 4 4 6 6 7 10 10 8 9 7 16 15 13 14 12 8 7 7 8 9 12 14 16 18
5 4 7 6 5 6 5 7 8 6 6 6 8 8 6 6 8 10 11 8 10 12 11 11 8 9 10 10 10 9 9 6 8 10 11 13 14 15
8 4 5 10 9 7 9 12 11 7 5 4 4 5 6 4 4 5 6 7 6 8 6 7 9 7 8 6 5 5 5 5 5 4 3 5 7 9
11 7 5 9 11 8 8 8 9 6 6 5 5 5 4 5 6 7 7 9 7 6 8 5 5 4 5 3 3 3 3 3 3 2 1 0 1 3
10 10 7 5 10 8 8 10 9 6 8 8 7 5 6 7 9 9 9 8 6 6 3 4 5 4 5 4 2 3 3 4 3 1 1 3 4 6
13 11 8 6 9 10 11 13 12 8 8 9 8 9 9 9 7 5 6 8 7 6 5 5 6 6 6 5 3 5 4 2 2 1 1 2 3 6
10 11 10 10 10 10 11 14 14 10 9 11 12 13 12 11 10 5 3 3 6 7 8 8 8 6 5 8 7 8 7 5 4 4 4 5 7 8
5 8 9 10 10 10 13 13 11 9 7 9 9 6 9 11 13 10 10 7 9 11 12 13 13 10 12 11 11 11 10 11 9 7 7 7 8 9
6 8 9 6 6 7 7 7 8 8 8 3 2 2 4 7 5 6 7 8 11 13 11 10 12 12 14 15 16 14 11 12 11 10 10 10 8 8
6 8 10 9 8 6 5 6 6 8 6 6 6 7 5 4 4 4 8 10 8 9 8 6 5 6 7 11 14 16 16 12 9 8 7 7 9 12
11 11 13 12 11 11 9 8 11 11 8 5 4 3 3 6 8 8 9 10 12 11 11 10 10 8 4 4 5 6 7 8 11 9 8 10 11 15
15 18 17 15 13 13 11 12 11 13 13 13 13 12 10 8 10 13 14 13 14 13 11 12 10 12 11 7 7 5 5 7 9 10 8 10 14 11
16 19 19 16 17 16 14 14 13 11 11 11 12 14 17 16 15 15 15 17 17 15 16 12 13 11 16 14 10 9 10 9 14 14 13 15 15 8
15 16 18 17 17 14 12 12 14 15 13 14 14 15 14 13 15 16 17 15 19 16 15 15 18 18 16 18 13 13 12 13 10 13 16 19 12 8
17 18 19 16 14 14 14 15 16 15 17 19 19 21 20 18 18 20 19 17 16 18 19 17 18 18 20 21 22 19 16 13 14 14 13 12 12 12
20 19 19 19 19 19 18 18 19 19 19 21 22 23 22 21 21 20 19 20 21 22 21 21 21 17 18 19 20 21 22 19 16 14 14 17 19 20
14 15 17 18 19 18 19 18 17 17 17 16 19 22 22 23 23 22 21 22 22 22 25 24 21 21 21 23 25 22 20 18 19 19 22 21 23 26
12 12 13 13 13 13 12 15 17 18 18 17 17 21 22 22 23 23 24 26 26 27 28 27 24 24 26 27 25 23 20 21 23 24 27 20 22 20
Wind_Direction
275 260 251 255 256 236 240 258 296 274 149 92 98 105 143 184 304 306 286 277 252 257 269 282 262 249 244 246 252 252 252 256 261 259 259 258 262 262
264 287 310 263 262 241 234 236 232 232 235 234 274 242 244 238 252 277 280 269 263 241 249 244 268 253 249 248 252 250 249 252 255 257 256 256 261 267
33 4 334 317 273 249 242 240 244 242 241 242 198 215 227 229 223 232 272 272 253 246 257 241 255 243 245 257 258 253 249 245 247 249 256 261 260 259
17 354 10 15 341 272 255 247 254 265 275 251 261 267 273 221 230 223 246 279 299 236 234 244 223 207 228 268 284 269 256 251 250 249 257 261 252 255
308 320 324 331 345 331 274 256 257 263 273 277 278 297 274 263 288 224 237 277 289 224 261 244 217 219 249 256 279 279 260 257 258 255 257 255 250 249
310 296 309 308 320 332 334 307 269 255 257 261 248 256 250 241 253 258 250 263 262 281 293 276 211 233 249 251 269 278 261 258 260 257 254 253 253 254
301 334 323 318 310 306 318 324 324 281 256 252 240 249 261 279 287 259 263 294 278 272 259 255 241 240 251 271 266 250 249 248 270 273 264 257 260 259
281 314 10 357 313 311 313 314 320 306 274 289 293 267 270 284 287 303 310 293 246 254 251 233 229 230 244 234 236 242 255 268 264 264 265 253 253 260
263 278 292 350 351 326 323 326 313 271 289 266 276 293 302 307 297 289 300 299 290 285 263 240 223 236 215 200 207 237 232 216 219 216 222 291 296 276
237 269 275 326 334 339 342 349 348 290 270 264 266 250 281 305 307 302 291 281 286 263 287 213 212 234 232 217 202 172 187 185 185 192 246 268 274 283
244 273 277 284 305 309 321 332 337 311 277 259 266 271 269 270 285 298 301 284 276 267 246 222 206 217 218 214 234 195 187 186 192 267 320 328 312 296
256 265 281 294 295 302 313 324 332 323 291 257 258 253 265 265 266 263 299 316 348 321 269 256 240 244 218 226 219 220 223 235 249 259 277 318 319 320
305 297 296 294 294 303 311 317 324 324 313 287 275 263 254 255 260 254 257 271 305 313 317 269 264 263 259 254 239 234 240 233 244 247 257 282 294 315
31 17 5 344 323 322 336 343 336 315 318 278 237 314 282 272 265 266 259 272 295 303 306 274 264 266 260 254 242 248 239 226 230 242 266 275 283 297
308 340 352 345 331 311 297 321 336 346 319 244 266 280 296 296 305 298 293 296 295 291 276 270 276 293 274 263 252 245 235 231 247 249 235 247 276 293
285 298 319 323 321 312 273 287 306 293 284 283 296 280 274 261 266 278 285 286 305 297 275 258 270 258 279 302 269 241 259 239 220 239 266 286 294 302
274 288 302 307 313 313 282 273 288 294 272 274 273 270 265 272 284 280 280 277 282 291 303 258 276 249 242 251 270 246 270 249 239 251 270 301 315 308
277 291 299 302 307 308 299 284 265 287 280 276 283 280 269 267 274 282 278 280 272 274 274 281 257 273 250 247 263 272 275 282 252 261 269 299 309 312
285 291 297 304 308 308 299 295 279 272 283 282 284 288 291 282 276 286 294 278 265 267 268 276 273 260 267 256 263 266 272 266 273 268 270 289 286 302
283 288 288 288 290 286 284 287 286 281 276 274 277 283 286 288 283 286 285 282 280 271 268 265 265 263 269 275 273 264 270 268 268 285 270 265 280 287
275 273 278 284 292 291 288 283 278 285 284 274 271 269 266 269 278 291 292 290 285 275 270 265 262 270 267 264 257 258 269 272 270 276 272 273 277 278
290 286 286 288 292 292 288 287 285 282 281 277 268 263 268 271 269 267 271 278 278 283 282 277 268 259 262 267 268 270 271 256 270 274 276 278 272 268
305 307 299 296 293 292 296 285 282 274 267 273 278 278 283 283 274 269 274 278 285 276 273 274 277 264 260 260 264 267 266 265 269 277 282 262 264 268